FENGYUN 3A

Last updated on Wed Sep 17 2025 00:02:22 GMT+0000 (Coordinated Universal Time)

1 32958U 08026A 25259.56309429 .00000077 00000+0 57000-4 0 9993 2 32958 98.6538 200.9960 0008349 189.3183 170.7839 14.19471663896584
UTC large
Height (km)
Speed (km/s)
/
Latitude / Longitude
Inclination (degrees)
Orbital Period (minutes)
Azimuth
Elevation
Range (km)
Doppler Factor

Next 0 passes for location: London (51.5072 / 0.1276)

Sorry there are no passes over London.